STARLINK-1210, 45207

Orbit data source: Space-Track

STARLINK-1210, 45207 is a payload satellite owned by SpaceX/Seattle (US) in LEO that was launched on Mon, 17 Feb 2020 UTC via an FALCON 9 launch vehicle from the Air Force Eastern Test Range (AFETR). Payloads include a variety of satellites, spacecraft, and rockets equipped with specific instruments for various scientific and technological missions. These include communications satellites like Starlink; space stations such as the ISS; scientific satellites like the Hubble; Earth observation satellites from companies like Planet Labs, Umbra, and HawkEye 360; GPS; miniature CubeSats for education and research; and military/defense satellites.

Loading next visibility...
STARLINK-1210 details
Identifier
45207, 2020-012AF
Orbit
LEO
Last TLE update7 hours ago
Origin
Flag of USSpaceX/Seattle (US)
ManufacturerSpaceX/Seattle
MissionPartially operational Commercial Communications
Bus & MotorSTARLINK, Unknown motor
Mass260 kg wet, ~248 kg dry
Launch date (UTC)
2020-02-17 (5 years ago)
Launch vehicle
FALCON 9
Launch site
Air Force Eastern Test Range (AFETR)
Object type
Payload
Rocket body
Debris
Shape & HBRBox + 1 Pan, 8.86 m
Radar Cross Section13.562 m², Large (>1 m²)

Expand to show TLE details & history

TLE from 7 hours ago
0 STARLINK-1210
1 45207U 20012AF  24361.23718523  .00011172  00000-0  58525-3 0  9990
2 45207  53.0529 190.5883 0004304 135.3828 224.7512 15.16272017269090
Epoch: 2024-12-26T05:41Z
Definitive object data (Epoch: 2024-12-26T05:41:32.803Z)
Latitude-0.00006°
Longitude9.98211°
Altitude520.111 km
Speed7.603 km/s
True Right ascension12h 42m 21s
True Declination0° 00' 00"
Sunlit
Object was in daylight at TLE epoch
Visualization TLE readout
Latitude51.73382°
Longitude80.2006°
Altitude521.722 km
Speed7.61 km/s
Apparent Right ascension20h 50m 07s
Apparent Declination12° 01' 06"
Sunlit
Object is in daylight
Visualization observer readout
Local Sidereal Time11:43:25
Azimuth47.437° ENE
Elevation-24.339°
Doppler factor1
Orbital elements
Apogee altitude520.359 km
Perigee altitude514.424 km
Semi-major axis6,895.529 km
Eccentricity0.0004304
Inclination53.0529°
RAAN190.5883°
Arg. of periapsis135.3828°
True anomaly224.71649°
Mean anomaly224.7512°
Eccentric anomaly224.73384°
Mean motion3.79046 °/min
BSTAR0.00058525
Orbital period94.98 mins
Loading maneuver chart data...

STARLINK-1210 Visibility forecast

Observer location: undefined°, undefined

Span
Click to sort rows by Start time (UTC) header in descending order
Start Az.
Max El. time (UTC)
Max El. Az.
Max El.
End time (UTC)
End Az.
7 mins2024-12-26 15:20:55.229Z211.147° SW2024-12-26 15:23:55.229Z152.958° SSE38.612°2024-12-26 15:27:55.229Z58.537° ENE
5 mins2024-12-26 17:00:55.229Z285.493° WNW2024-12-26 17:02:55.229Z325.129° NNW23.428°2024-12-26 17:05:55.229Z25.738° NE
5 mins2024-12-26 22:00:55.229Z328.643° NNW2024-12-26 22:02:55.229Z34.337° NE38.415°2024-12-26 22:05:55.229Z109.703° ESE
4 mins2024-12-26 23:39:55.229Z262.779° W2024-12-26 23:41:55.229Z222.325° SW18.666°2024-12-26 23:43:55.229Z188.502° SSW
|